N5DUP Weather Reports


Display with metric or nautical units.
time (UTC)temp
F
wind
direction
speed
MPH
gust
MPH
rain 1hr
in
rain 24hr
in
rain mn
in
humidity
%
barometer
mb
20260508030319 62 204 3.0 5.0 0.00 0.00 0.00 65 1014.9
20260508024853 63 196 2.0 6.0 0.00 0.00 0.00 61 1014.7
20260508023327 63 192 2.0 8.0 0.00 0.00 0.00 61 1014.4
20260508021822 63 189 2.0 7.0 0.00 0.00 0.00 60 1014.1
20260508020340 63 190 3.0 8.0 0.00 0.00 0.00 57 1013.9
20260508014833 64 188 5.0 9.0 0.00 0.00 0.00 56 1013.5
20260508013328 64 192 4.0 10.0 0.00 0.00 0.00 55 1013.4
20260508011821 65 191 2.0 10.0 0.00 0.00 0.00 53 1013.6
20260508010334 65 198 4.0 9.0 0.00 0.00 0.00 52 1013.5
20260508004824 66 198 3.0 9.0 0.00 0.00 0.00 52 1013.6
20260508003317 66 189 5.0 10.0 0.00 0.00 0.00 51 1013.6
20260508001832 67 194 4.0 9.0 0.00 0.00 0.00 49 1013.9
20260508000328 68 199 4.0 12.0 0.00 0.00 0.00 51 1014.0
20260507234841 69 186 4.0 7.0 0.00 0.00 0.00 50 1014.0
20260507233330 69 191 3.0 8.0 0.00 0.00 0.00 48 1014.0
20260507231824 69 179 5.0 9.0 0.00 0.00 0.00 48 1013.8
20260507230338 70 182 5.0 10.0 0.00 0.00 0.00 47 1014.2
20260507224830 71 160 4.0 8.0 0.00 0.00 0.00 45 1014.3
20260507223327 72 196 3.0 10.0 0.00 0.00 0.00 44 1014.5
20260507221819 72 198 5.0 9.0 0.00 0.00 0.00 44 1014.4
20260507220334 71 219 5.0 13.0 0.00 0.00 0.00 44 1014.4
20260507214827 72 202 5.0 13.0 0.00 0.00 0.00 44 1014.6
20260507213325 73 196 5.0 12.0 0.00 0.00 0.00 42 1014.7
20260507211840 77 129 1.0 7.0 0.00 0.00 0.00 36 1014.7
20260507210327 76 191 2.0 9.0 0.00 0.00 0.00 36 1015.0
20260507204815 74 198 2.0 12.0 0.00 0.00 0.00 38 1015.3
20260507203345 73 87 3.0 11.0 0.00 0.00 0.00 38 1015.5
20260507201815 73 101 5.0 8.0 0.00 0.00 0.00 38 1016.0
20260507200328 73 82 6.0 11.0 0.00 0.00 0.00 35 1016.1
20260507194825 73 236 3.0 10.0 0.00 0.00 0.00 38 1016.1
20260507193322 72 112 6.0 10.0 0.00 0.00 0.00 38 1015.9
20260507191853 71 84 5.0 12.0 0.00 0.00 0.00 38 1016.4
20260507190326 71 52 6.0 11.0 0.00 0.00 0.00 41 1016.5
20260507184819 71 153 1.0 9.0 0.00 0.00 0.00 42 1016.8
20260507183332 69 82 6.0 14.0 0.00 0.00 0.00 42 1017.2
20260507181842 69 94 5.0 13.0 0.00 0.00 0.00 43 1017.3
20260507180337 68 79 7.0 13.0 0.00 0.00 0.00 45 1017.3
20260507174826 67 42 5.0 12.0 0.00 0.00 0.00 45 1017.2
20260507173319 66 59 7.0 13.0 0.00 0.00 0.00 47 1017.5
20260507171826 66 78 7.0 15.0 0.00 0.00 0.00 47 1017.8
20260507170331 64 44 7.0 14.0 0.00 0.00 0.00 48 1018.3
20260507164818 64 93 9.0 12.0 0.00 0.00 0.00 49 1018.6
20260507163330 63 82 9.0 17.0 0.00 0.00 0.00 49 1018.7
20260507161821 63 40 10.0 15.0 0.00 0.00 0.00 49 1019.1
20260507160314 61 65 9.0 15.0 0.00 0.00 0.00 53 1019.1
20260507154850 61 68 6.0 12.0 0.00 0.00 0.00 55 1019.1
20260507153316 60 81 6.0 10.0 0.00 0.00 0.00 57 1019.4
20260507151822 59 93 7.0 12.0 0.00 0.00 0.00 59 1019.4
20260507150315 58 97 4.0 10.0 0.00 0.00 0.00 64 1019.5
20260507144825 57 84 4.0 10.0 0.00 0.00 0.00 68 1019.3
20260507143317 56 109 5.0 10.0 0.00 0.00 0.00 71 1019.3
20260507141846 54 86 5.0 11.0 0.00 0.00 0.00 75 1019.4
20260507140319 53 90 4.0 8.0 0.00 0.00 0.00 76 1019.4
20260507134819 53 51 5.0 11.0 0.00 0.00 0.00 79 1019.5
20260507133331 52 63 4.0 8.0 0.00 0.00 0.00 83 1019.4
20260507131824 50 47 1.0 5.0 0.00 0.00 0.00 84 1019.4
20260507130316 49 46 1.0 4.0 0.00 0.00 0.00 83 1019.5
20260507124827 49 47 1.0 3.0 0.00 0.00 0.00 82 1019.5
20260507123339 49 48 0.0 0.0 0.00 0.00 0.00 82 1019.8
20260507121828 49 48 0.0 0.0 0.00 0.00 0.00 82 1019.6
20260507120341 49 48 0.0 1.0 0.00 0.00 0.00 82 1019.4
20260507114824 49 48 0.0 0.0 0.00 0.00 0.00 81 1019.3
20260507113316 49 48 0.0 2.0 0.00 0.00 0.00 81 1019.4
20260507111835 50 48 0.0 0.0 0.00 0.00 0.00 81 1019.4
20260507110325 50 48 0.0 1.0 0.00 0.00 0.00 81 1019.5
20260507104851 50 48 0.0 0.0 0.00 0.00 0.00 80 1019.5
20260507103322 50 48 0.0 0.0 0.00 0.00 0.00 81 1019.4
20260507101815 50 48 0.0 2.0 0.00 0.00 0.00 80 1019.1
20260507100324 51 48 0.0 4.0 0.00 0.00 0.00 80 1019.0
20260507094818 51 47 3.0 6.0 0.00 0.00 0.00 80 1018.7
20260507093328 51 61 3.0 7.0 0.00 0.00 0.00 80 1018.4
20260507091840 51 42 3.0 6.0 0.00 0.00 0.00 80 1018.3
20260507090335 51 59 3.0 5.0 0.00 0.00 0.00 79 1018.3
20260507084826 51 41 4.0 6.0 0.00 0.00 0.00 79 1018.0
20260507083321 52 56 3.0 6.0 0.00 0.00 0.00 78 1018.0
20260507081851 52 70 6.0 9.0 0.00 0.00 0.00 78 1017.6
20260507080325 52 44 3.0 6.0 0.00 0.00 0.00 78 1017.7
20260507074819 52 52 3.0 7.0 0.00 0.00 0.00 78 1017.7
20260507073349 53 63 3.0 6.0 0.00 0.00 0.00 78 1017.7
20260507071820 53 77 3.0 5.0 0.00 0.00 0.00 77 1017.5
20260507070330 53 84 1.0 3.0 0.00 0.00 0.00 76 1017.4
20260507064824 53 84 0.0 0.0 0.00 0.00 0.00 76 1017.5
20260507063338 53 84 1.0 3.0 0.00 0.00 0.00 76 1017.4
20260507061831 53 84 1.0 3.0 0.00 0.00 0.00 75 1017.1
20260507060324 53 85 1.0 2.0 0.00 0.00 0.00 75 1016.8
20260507054831 53 85 1.0 3.0 0.00 0.00 0.00 74 1016.5
20260507053343 54 85 0.0 1.0 0.00 0.00 0.00 74 1016.4
20260507051816 54 85 1.0 2.0 0.00 0.00 0.00 73 1016.2
20260507050331 54 85 0.0 0.0 0.00 0.00 0.00 73 1015.9
20260507044821 54 85 0.0 3.0 0.00 0.00 0.00 72 1015.6
20260507043317 55 80 3.0 3.0 0.00 0.00 0.00 72 1015.4
20260507041832 55 78 1.0 3.0 0.00 0.00 0.00 71 1015.5
20260507040327 55 79 2.0 5.0 0.00 0.00 0.00 70 1015.4
20260507034815 56 93 4.0 8.0 0.00 0.00 0.00 69 1015.4
20260507033328 56 96 3.0 8.0 0.00 0.00 0.00 69 1015.4
20260507031815 57 111 4.0 8.0 0.00 0.00 0.00 68 1015.2